Starlink 30114

operational
NORAD ID: 56826 Int'l Des: 2023-079 Owner: SPXS Country: US Constellation: starlink
LEOCIRCULAR

About Starlink 30114

Description loading...

Live Position

Loading 3D Globe...

Upcoming Passes

Altitude History

Altitude vs Time

uPlot chart will show altitude changes over time

Two-Line Element Set

1 56826U 23079D 25351.60551197 -.00000156 00000-0 35290-5 0 9995
2 56826 43.0025 193.4793 0001075 271.8657 88.2062 15.02544927140851
Epoch: Dec 17, 2025 • Age: 18 hours

Current Status

Altitude 558.9 km
Velocity 7.58 km/s
Sub-Earth Point 0.25°N, 148.66°E
Launch Date Jun 4, 2023
Age 2.5 years
Type internet

Technical Details

Classification Payload
Mass 730.00 kg
Dry Mass 700.00 kg
Total Mass 730.00 kg
Length 0.30 m
Diameter 4.10 m
Span 29.00 m
Shape Box + pan
Manufacturer SPXS
Bus Type Starlink V2M
Phase Status In Orbit
Owner/State SPXS/US

Large Constellations

Loading constellations...